Time,TemperatureF,DewpointF,PressureIn,WindDirection,WindDirectionDegrees,WindSpeedMPH,WindSpeedGustMPH,Humidity,HourlyPrecipIn,Conditions,Clouds,dailyrainin,SoftwareType,DateUTC
2013-02-09 00:00:00,35.4,30.8,30.42,NE,52,7.0,16.0,83,0.00,,---,0.00,VWS V14.00,2013-02-09 06:00:00,
2013-02-09 00:05:00,35.4,30.8,30.42,ENE,62,8.0,17.0,83,0.00,,---,0.00,VWS V14.00,2013-02-09 06:05:00,
2013-02-09 00:10:00,35.4,30.8,30.42,NE,44,10.0,17.0,83,0.00,,---,0.00,VWS V14.00,2013-02-09 06:10:00,
2013-02-09 00:15:00,35.3,30.7,30.42,NE,36,9.0,17.0,83,0.00,,---,0.00,VWS V14.00,2013-02-09 06:15:00,
2013-02-09 00:20:00,35.3,30.7,30.42,NNE,20,6.0,17.0,83,0.00,,---,0.00,VWS V14.00,2013-02-09 06:20:00,
2013-02-09 00:25:00,35.3,30.7,30.43,NNE,13,7.0,17.0,83,0.00,,---,0.00,VWS V14.00,2013-02-09 06:25:00,
2013-02-09 00:30:00,35.3,31.0,30.42,NNE,26,3.0,9.0,84,0.00,,---,0.00,VWS V14.00,2013-02-09 06:30:00,
2013-02-09 00:35:00,35.3,31.0,30.42,NE,55,5.0,9.0,84,0.00,,---,0.00,VWS V14.00,2013-02-09 06:35:00,
2013-02-09 00:40:00,35.3,31.0,30.42,NE,49,6.0,9.0,84,0.00,,---,0.00,VWS V14.00,2013-02-09 06:40:00,
2013-02-09 00:45:00,35.2,30.9,30.42,NNE,20,7.0,10.0,84,0.00,,---,0.00,VWS V14.00,2013-02-09 06:45:00,
2013-02-09 00:50:00,35.3,31.0,30.42,NNE,23,7.0,10.0,84,0.00,,---,0.00,VWS V14.00,2013-02-09 06:50:00,
2013-02-09 00:55:00,35.2,30.9,30.42,NE,40,8.0,16.0,84,0.00,,---,0.00,VWS V14.00,2013-02-09 06:55:00,
2013-02-09 01:00:00,35.1,30.8,30.42,NE,44,9.0,10.0,84,0.00,,---,0.00,VWS V14.00,2013-02-09 07:00:00,
2013-02-09 01:05:00,34.9,30.6,30.42,ENE,67,10.0,12.0,84,0.00,,---,0.00,VWS V14.00,2013-02-09 07:05:00,
2013-02-09 01:10:00,34.8,30.5,30.42,NE,42,5.0,12.0,84,0.00,,---,0.00,VWS V14.00,2013-02-09 07:10:00,
2013-02-09 01:15:00,34.7,30.4,30.43,NE,54,5.0,12.0,84,0.00,,---,0.00,VWS V14.00,2013-02-09 07:15:00,
2013-02-09 01:20:00,34.5,30.2,30.43,ENE,67,7.0,15.0,84,0.00,,---,0.00,VWS V14.00,2013-02-09 07:20:00,
2013-02-09 01:25:00,34.3,29.7,30.42,NE,39,7.0,15.0,83,0.00,,---,0.00,VWS V14.00,2013-02-09 07:25:00,
2013-02-09 01:30:00,34.2,29.9,30.42,NE,38,8.0,13.0,84,0.00,,---,0.00,VWS V14.00,2013-02-09 07:30:00,
2013-02-09 01:35:00,34.2,29.9,30.42,NE,46,5.0,13.0,84,0.00,,---,0.00,VWS V14.00,2013-02-09 07:35:00,
2013-02-09 01:40:00,34.2,29.9,30.43,NNE,26,5.0,13.0,84,0.00,,---,0.00,VWS V14.00,2013-02-09 07:40:00,
2013-02-09 01:45:00,34.2,29.9,30.42,NNE,26,8.0,15.0,84,0.00,,---,0.00,VWS V14.00,2013-02-09 07:45:00,
2013-02-09 01:50:00,34.2,29.9,30.42,NNE,19,2.0,15.0,84,0.00,,---,0.00,VWS V14.00,2013-02-09 07:50:00,
2013-02-09 01:55:00,34.2,29.9,30.43,NE,34,5.0,15.0,84,0.00,,---,0.00,VWS V14.00,2013-02-09 07:55:00,
2013-02-09 02:00:00,34.2,29.9,30.43,NE,36,8.0,19.0,84,0.00,,---,0.00,VWS V14.00,2013-02-09 08:00:00,
2013-02-09 02:05:00,34.2,29.9,30.43,NNE,23,13.0,19.0,84,0.00,,---,0.00,VWS V14.00,2013-02-09 08:05:00,
2013-02-09 02:10:00,34.2,29.9,30.43,NNE,33,9.0,19.0,84,0.00,,---,0.00,VWS V14.00,2013-02-09 08:10:00,
2013-02-09 02:15:00,34.3,30.0,30.43,North,11,6.0,19.0,84,0.00,,---,0.00,VWS V14.00,2013-02-09 08:15:00,
2013-02-09 02:20:00,34.3,30.3,30.43,NE,39,5.0,19.0,85,0.00,,---,0.00,VWS V14.00,2013-02-09 08:20:00,
2013-02-09 02:25:00,34.3,30.3,30.44,NNE,13,5.0,19.0,85,0.00,,---,0.00,VWS V14.00,2013-02-09 08:25:00,
2013-02-09 02:30:00,34.3,30.3,30.44,NNE,29,3.0,6.0,85,0.00,,---,0.00,VWS V14.00,2013-02-09 08:30:00,
2013-02-09 02:35:00,34.3,30.3,30.44,NNE,32,6.0,6.0,85,0.00,,---,0.00,VWS V14.00,2013-02-09 08:35:00,
2013-02-09 02:40:00,34.3,30.0,30.44,NE,47,6.0,9.0,84,0.00,,---,0.00,VWS V14.00,2013-02-09 08:40:00,
2013-02-09 02:45:00,34.3,30.3,30.44,NNE,30,2.0,9.0,85,0.00,,---,0.00,VWS V14.00,2013-02-09 08:45:00,
2013-02-09 02:50:00,34.3,30.3,30.44,NNE,26,4.0,9.0,85,0.00,,---,0.00,VWS V14.00,2013-02-09 08:50:00,
2013-02-09 02:55:00,34.3,30.0,30.45,NE,47,5.0,9.0,84,0.00,,---,0.00,VWS V14.00,2013-02-09 08:55:00,
2013-02-09 03:00:00,34.3,30.0,30.44,ENE,75,4.0,6.0,84,0.00,,---,0.00,VWS V14.00,2013-02-09 09:00:00,
2013-02-09 03:05:00,34.2,29.9,30.44,NE,51,10.0,10.0,84,0.00,,---,0.00,VWS V14.00,2013-02-09 09:05:00,
2013-02-09 03:10:00,34.1,29.8,30.45,ENE,59,6.0,11.0,84,0.00,,---,0.00,VWS V14.00,2013-02-09 09:10:00,
2013-02-09 03:15:00,34.1,29.8,30.44,NE,47,2.0,11.0,84,0.00,,---,0.00,VWS V14.00,2013-02-09 09:15:00,
2013-02-09 03:20:00,34.1,29.8,30.44,NNE,29,6.0,11.0,84,0.00,,---,0.00,VWS V14.00,2013-02-09 09:20:00,
2013-02-09 03:25:00,34.1,29.8,30.44,ENE,69,5.0,12.0,84,0.00,,---,0.00,VWS V14.00,2013-02-09 09:25:00,
2013-02-09 03:30:00,34.1,29.8,30.44,NE,42,5.0,8.0,84,0.00,,---,0.00,VWS V14.00,2013-02-09 09:30:00,
2013-02-09 03:35:00,34.1,29.8,30.44,NE,51,3.0,8.0,84,0.00,,---,0.00,VWS V14.00,2013-02-09 09:35:00,
2013-02-09 03:40:00,34.0,29.7,30.44,NE,49,5.0,9.0,84,0.00,,---,0.00,VWS V14.00,2013-02-09 09:40:00,
2013-02-09 03:45:00,34.0,29.7,30.44,NE,38,5.0,10.0,84,0.00,,---,0.00,VWS V14.00,2013-02-09 09:45:00,
2013-02-09 03:50:00,33.9,29.6,30.45,NNE,21,3.0,12.0,84,0.00,,---,0.00,VWS V14.00,2013-02-09 09:50:00,
2013-02-09 03:55:00,33.9,29.6,30.44,NNE,18,8.0,12.0,84,0.00,,---,0.00,VWS V14.00,2013-02-09 09:55:00,
2013-02-09 04:00:00,33.9,29.6,30.44,NNE,26,6.0,10.0,84,0.00,,---,0.00,VWS V14.00,2013-02-09 10:00:00,
2013-02-09 04:04:00,33.9,29.6,30.44,NNE,28,10.0,11.0,84,0.00,,---,0.00,VWS V14.00,2013-02-09 10:04:00,
2013-02-09 04:09:00,33.9,29.6,30.45,NNE,32,7.0,11.0,84,0.00,,---,0.00,VWS V14.00,2013-02-09 10:09:00,
2013-02-09 04:14:00,33.9,29.6,30.45,NE,42,5.0,13.0,84,0.00,,---,0.00,VWS V14.00,2013-02-09 10:14:00,
2013-02-09 04:19:00,33.9,29.9,30.45,NE,49,4.0,13.0,85,0.00,,---,0.00,VWS V14.00,2013-02-09 10:19:00,
2013-02-09 04:24:00,33.9,29.6,30.45,NE,53,13.0,13.0,84,0.00,,---,0.00,VWS V14.00,2013-02-09 10:24:00,
2013-02-09 04:29:00,33.9,29.6,30.45,NE,49,5.0,11.0,84,0.00,,---,0.00,VWS V14.00,2013-02-09 10:29:00,
2013-02-09 04:34:00,33.8,29.5,30.45,ENE,63,11.0,13.0,84,0.00,,---,0.00,VWS V14.00,2013-02-09 10:34:00,
2013-02-09 04:39:00,33.8,29.5,30.45,NE,49,8.0,13.0,84,0.00,,---,0.00,VWS V14.00,2013-02-09 10:39:00,
2013-02-09 04:44:00,33.6,29.3,30.45,ENE,58,6.0,13.0,84,0.00,,---,0.00,VWS V14.00,2013-02-09 10:44:00,
2013-02-09 04:49:00,33.5,29.2,30.45,NE,45,3.0,13.0,84,0.00,,---,0.00,VWS V14.00,2013-02-09 10:49:00,
2013-02-09 04:54:00,33.4,29.1,30.45,NE,34,7.0,13.0,84,0.00,,---,0.00,VWS V14.00,2013-02-09 10:54:00,
2013-02-09 04:59:00,33.3,29.0,30.45,NE,36,5.0,6.0,84,0.00,,---,0.00,VWS V14.00,2013-02-09 10:59:00,
2013-02-09 05:04:00,33.2,29.2,30.45,NE,42,4.0,8.0,85,0.00,,---,0.00,VWS V14.00,2013-02-09 11:04:00,
2013-02-09 05:09:00,33.1,29.1,30.45,NE,42,3.0,8.0,85,0.00,,---,0.00,VWS V14.00,2013-02-09 11:09:00,
2013-02-09 05:14:00,33.0,29.0,30.45,ENE,57,2.0,8.0,85,0.00,,---,0.00,VWS V14.00,2013-02-09 11:14:00,
2013-02-09 05:19:00,33.0,29.0,30.45,NE,49,2.0,8.0,85,0.00,,---,0.00,VWS V14.00,2013-02-09 11:19:00,
2013-02-09 05:24:00,33.0,29.0,30.45,ENE,59,2.0,8.0,85,0.00,,---,0.00,VWS V14.00,2013-02-09 11:24:00,
2013-02-09 05:29:00,32.8,29.1,30.45,ENE,57,3.0,5.0,86,0.00,,---,0.00,VWS V14.00,2013-02-09 11:29:00,
2013-02-09 05:34:00,32.6,28.9,30.45,ENE,57,3.0,5.0,86,0.00,,---,0.00,VWS V14.00,2013-02-09 11:34:00,
2013-02-09 05:39:00,32.5,28.8,30.45,ENE,57,4.0,5.0,86,0.00,,---,0.00,VWS V14.00,2013-02-09 11:39:00,
2013-02-09 05:44:00,32.3,30.2,30.46,ENE,57,2.0,5.0,92,0.00,,---,0.00,VWS V14.00,2013-02-09 11:44:00,
2013-02-09 05:49:00,32.2,28.8,30.46,NE,42,5.0,6.0,87,0.00,,---,0.00,VWS V14.00,2013-02-09 11:49:00,
2013-02-09 05:54:00,32.3,28.9,30.46,NE,53,5.0,7.0,87,0.00,,---,0.00,VWS V14.00,2013-02-09 11:54:00,
2013-02-09 05:59:00,32.3,28.6,30.47,NE,35,2.0,3.0,86,0.00,,---,0.00,VWS V14.00,2013-02-09 11:59:00,
2013-02-09 06:04:00,32.1,28.7,30.47,NE,35,1.0,4.0,87,0.00,,---,0.00,VWS V14.00,2013-02-09 12:04:00,
2013-02-09 06:09:00,31.9,28.5,30.47,NE,35,2.0,4.0,87,0.00,,---,0.00,VWS V14.00,2013-02-09 12:09:00,
2013-02-09 06:14:00,31.7,28.3,30.47,NE,35,2.0,4.0,87,0.00,,---,0.00,VWS V14.00,2013-02-09 12:14:00,
2013-02-09 06:19:00,31.4,28.3,30.48,NE,35,0.0,4.0,88,0.00,,---,0.00,VWS V14.00,2013-02-09 12:19:00,
2013-02-09 06:24:00,31.2,28.1,30.48,NE,56,1.0,4.0,88,0.00,,---,0.00,VWS V14.00,2013-02-09 12:24:00,
2013-02-09 06:29:00,31.1,28.0,30.48,North,10,0.0,2.0,88,0.00,,---,0.00,VWS V14.00,2013-02-09 12:29:00,
2013-02-09 06:34:00,30.9,27.8,30.48,North,10,0.0,2.0,88,0.00,,---,0.00,VWS V14.00,2013-02-09 12:34:00,
2013-02-09 06:39:00,30.8,27.7,30.48,North,10,1.0,2.0,88,0.00,,---,0.00,VWS V14.00,2013-02-09 12:39:00,
2013-02-09 06:44:00,30.7,27.9,30.48,NNE,27,0.0,6.0,89,0.00,,---,0.00,VWS V14.00,2013-02-09 12:44:00,
2013-02-09 06:49:00,30.7,27.9,30.48,NNE,19,2.0,6.0,89,0.00,,---,0.00,VWS V14.00,2013-02-09 12:49:00,
2013-02-09 06:54:00,30.7,27.9,30.49,NNE,19,1.0,6.0,89,0.00,,---,0.00,VWS V14.00,2013-02-09 12:54:00,
2013-02-09 06:59:00,30.8,28.0,30.49,NNE,33,0.0,2.0,89,0.00,,---,0.00,VWS V14.00,2013-02-09 12:59:00,
2013-02-09 07:04:00,31.0,28.1,30.49,NNE,33,2.0,4.0,89,0.00,,---,0.00,VWS V14.00,2013-02-09 13:04:00,
2013-02-09 07:09:00,31.1,28.0,30.49,NE,40,4.0,4.0,88,0.00,,---,0.00,VWS V14.00,2013-02-09 13:09:00,
2013-02-09 07:14:00,31.2,28.1,30.49,NE,37,1.0,6.0,88,0.00,,---,0.00,VWS V14.00,2013-02-09 13:14:00,
2013-02-09 07:19:00,31.3,28.2,30.50,NE,38,0.0,6.0,88,0.00,,---,0.00,VWS V14.00,2013-02-09 13:19:00,
2013-02-09 07:24:00,31.5,28.4,30.50,NE,38,0.0,6.0,88,0.00,,---,0.00,VWS V14.00,2013-02-09 13:24:00,
2013-02-09 07:29:00,31.6,28.2,30.51,NE,43,0.0,1.0,87,0.00,,---,0.00,VWS V14.00,2013-02-09 13:29:00,
2013-02-09 07:34:00,31.8,28.4,30.51,NE,43,1.0,3.0,87,0.00,,---,0.00,VWS V14.00,2013-02-09 13:34:00,
2013-02-09 07:39:00,32.1,28.7,30.51,NE,43,1.0,4.0,87,0.00,,---,0.00,VWS V14.00,2013-02-09 13:39:00,
2013-02-09 07:44:00,32.3,28.6,30.52,NNE,24,0.0,5.0,86,0.00,,---,0.00,VWS V14.00,2013-02-09 13:44:00,
2013-02-09 07:49:00,32.5,28.8,30.52,NE,47,1.0,5.0,86,0.00,,---,0.00,VWS V14.00,2013-02-09 13:49:00,
2013-02-09 07:54:00,32.7,29.0,30.52,North,5,5.0,5.0,86,0.00,,---,0.00,VWS V14.00,2013-02-09 13:54:00,
2013-02-09 07:59:00,32.9,29.2,30.52,North,9,1.0,5.0,86,0.00,,---,0.00,VWS V14.00,2013-02-09 13:59:00,
2013-02-09 08:04:00,33.2,29.2,30.52,NE,37,3.0,5.0,85,0.00,,---,0.00,VWS V14.00,2013-02-09 14:04:00,
2013-02-09 08:09:00,33.3,29.3,30.52,NNE,28,4.0,6.0,85,0.00,,---,0.00,VWS V14.00,2013-02-09 14:09:00,
2013-02-09 08:14:00,33.3,29.0,30.52,ENE,71,3.0,8.0,84,0.00,,---,0.00,VWS V14.00,2013-02-09 14:14:00,
2013-02-09 08:19:00,33.5,29.5,30.52,NE,42,6.0,8.0,85,0.00,,---,0.00,VWS V14.00,2013-02-09 14:19:00,
2013-02-09 08:24:00,33.6,29.0,30.52,NE,54,1.0,8.0,83,0.00,,---,0.00,VWS V14.00,2013-02-09 14:24:00,
2013-02-09 08:29:00,34.1,29.5,30.52,ENE,67,3.0,5.0,83,0.00,,---,0.00,VWS V14.00,2013-02-09 14:29:00,
2013-02-09 08:34:00,34.3,29.7,30.52,NE,38,3.0,6.0,83,0.00,,---,0.00,VWS V14.00,2013-02-09 14:34:00,
2013-02-09 08:39:00,34.5,29.6,30.52,NE,46,0.0,6.0,82,0.00,,---,0.00,VWS V14.00,2013-02-09 14:39:00,
2013-02-09 08:44:00,34.6,29.7,30.52,NE,55,4.0,6.0,82,0.00,,---,0.00,VWS V14.00,2013-02-09 14:44:00,
2013-02-09 08:49:00,34.8,29.6,30.52,NNE,23,0.0,6.0,81,0.00,,---,0.00,VWS V14.00,2013-02-09 14:49:00,
2013-02-09 08:54:00,35.1,30.2,30.52,NE,51,4.0,6.0,82,0.00,,---,0.00,VWS V14.00,2013-02-09 14:54:00,
2013-02-09 08:59:00,35.4,30.2,30.51,SE,126,0.0,0.0,81,0.00,,---,0.00,VWS V14.00,2013-02-09 14:59:00,
2013-02-09 09:04:00,35.9,30.3,30.51,NE,42,6.0,6.0,80,0.00,,---,0.00,VWS V14.00,2013-02-09 15:04:00,
2013-02-09 09:09:00,35.9,30.0,30.52,East,93,0.0,6.0,79,0.00,,---,0.00,VWS V14.00,2013-02-09 15:09:00,
2013-02-09 09:14:00,36.5,30.3,30.52,East,94,0.0,6.0,78,0.00,,---,0.00,VWS V14.00,2013-02-09 15:14:00,
2013-02-09 09:19:00,36.6,30.1,30.51,ENE,77,0.0,6.0,77,0.00,,---,0.00,VWS V14.00,2013-02-09 15:19:00,
2013-02-09 09:24:00,37.0,30.5,30.51,ENE,77,0.0,6.0,77,0.00,,---,0.00,VWS V14.00,2013-02-09 15:24:00,
2013-02-09 09:29:00,37.5,30.6,30.51,SE,136,0.0,1.0,76,0.00,,---,0.00,VWS V14.00,2013-02-09 15:29:00,
2013-02-09 09:34:00,37.9,30.7,30.51,South,175,0.0,2.0,75,0.00,,---,0.00,VWS V14.00,2013-02-09 15:34:00,
2013-02-09 09:39:00,38.1,30.6,30.51,South,175,0.0,2.0,74,0.00,,---,0.00,VWS V14.00,2013-02-09 15:39:00,
2013-02-09 09:44:00,38.2,30.3,30.51,NE,49,0.0,5.0,73,0.00,,---,0.00,VWS V14.00,2013-02-09 15:44:00,
2013-02-09 09:49:00,38.4,31.5,30.51,NE,51,0.0,5.0,76,0.00,,---,0.00,VWS V14.00,2013-02-09 15:49:00,
2013-02-09 09:54:00,38.6,31.0,30.51,ESE,118,0.0,5.0,74,0.00,,---,0.00,VWS V14.00,2013-02-09 15:54:00,
2013-02-09 09:59:00,39.0,31.1,30.52,North,349,0.0,1.0,73,0.00,,---,0.00,VWS V14.00,2013-02-09 15:59:00,
2013-02-09 10:04:00,39.4,31.8,30.52,North,355,1.0,1.0,74,0.00,,---,0.00,VWS V14.00,2013-02-09 16:04:00,
2013-02-09 10:09:00,39.7,31.8,30.51,North,355,0.0,4.0,73,0.00,,---,0.00,VWS V14.00,2013-02-09 16:09:00,
2013-02-09 10:14:00,39.8,31.9,30.52,NNW,333,0.0,6.0,73,0.00,,---,0.00,VWS V14.00,2013-02-09 16:14:00,
2013-02-09 10:19:00,40.1,31.8,30.52,NNW,333,0.0,6.0,72,0.00,,---,0.00,VWS V14.00,2013-02-09 16:19:00,
2013-02-09 10:24:00,40.4,31.8,30.51,NE,47,0.0,6.0,71,0.00,,---,0.00,VWS V14.00,2013-02-09 16:24:00,
2013-02-09 10:29:00,40.5,31.9,30.50,NNE,27,0.0,1.0,71,0.00,,---,0.00,VWS V14.00,2013-02-09 16:29:00,
2013-02-09 10:34:00,40.9,31.9,30.50,SSE,161,4.0,5.0,70,0.00,,---,0.00,VWS V14.00,2013-02-09 16:34:00,
2013-02-09 10:39:00,41.0,32.0,30.50,ENE,63,3.0,5.0,70,0.00,,---,0.00,VWS V14.00,2013-02-09 16:39:00,
2013-02-09 10:44:00,41.5,32.5,30.50,NE,45,2.0,5.0,70,0.00,,---,0.00,VWS V14.00,2013-02-09 16:44:00,
2013-02-09 10:49:00,42.0,32.2,30.50,ENE,59,0.0,5.0,68,0.00,,---,0.00,VWS V14.00,2013-02-09 16:49:00,
2013-02-09 10:54:00,42.3,32.5,30.50,North,5,0.0,5.0,68,0.00,,---,0.00,VWS V14.00,2013-02-09 16:54:00,
2013-02-09 10:59:00,42.9,33.1,30.50,NNE,16,3.0,5.0,68,0.00,,---,0.00,VWS V14.00,2013-02-09 16:59:00,
2013-02-09 11:04:00,43.3,32.3,30.50,NE,40,2.0,6.0,65,0.00,,---,0.00,VWS V14.00,2013-02-09 17:04:00,
2013-02-09 11:09:00,43.5,32.2,30.49,WNW,303,0.0,6.0,64,0.00,,---,0.00,VWS V14.00,2013-02-09 17:09:00,
2013-02-09 11:14:00,43.8,32.4,30.49,NE,40,0.0,6.0,64,0.00,,---,0.00,VWS V14.00,2013-02-09 17:14:00,
2013-02-09 11:19:00,44.2,32.8,30.49,NE,40,0.0,6.0,64,0.00,,---,0.00,VWS V14.00,2013-02-09 17:19:00,
2013-02-09 11:24:00,44.8,33.0,30.49,NE,40,0.0,6.0,63,0.00,,---,0.00,VWS V14.00,2013-02-09 17:24:00,
2013-02-09 11:29:00,45.4,33.2,30.49,NNW,348,2.0,4.0,62,0.00,,---,0.00,VWS V14.00,2013-02-09 17:29:00,
2013-02-09 11:34:00,45.8,33.1,30.48,NNE,25,2.0,6.0,61,0.00,,---,0.00,VWS V14.00,2013-02-09 17:34:00,
2013-02-09 11:39:00,46.0,32.9,30.48,NNE,14,4.0,6.0,60,0.00,,---,0.00,VWS V14.00,2013-02-09 17:39:00,
2013-02-09 11:44:00,46.1,33.0,30.47,North,360,4.0,7.0,60,0.00,,---,0.00,VWS V14.00,2013-02-09 17:44:00,
2013-02-09 11:49:00,46.6,33.9,30.47,ENE,74,3.0,7.0,61,0.00,,---,0.00,VWS V14.00,2013-02-09 17:49:00,
2013-02-09 11:54:00,46.9,32.9,30.46,NE,48,1.0,7.0,58,0.00,,---,0.00,VWS V14.00,2013-02-09 17:54:00,
2013-02-09 11:59:00,47.3,33.3,30.46,NNE,15,3.0,4.0,58,0.00,,---,0.00,VWS V14.00,2013-02-09 17:59:00,
2013-02-09 12:04:00,47.6,34.0,30.46,North,9,3.0,4.0,59,0.00,,---,0.00,VWS V14.00,2013-02-09 18:04:00,
2013-02-09 12:09:00,48.1,33.6,30.45,North,360,0.0,5.0,57,0.00,,---,0.00,VWS V14.00,2013-02-09 18:09:00,
2013-02-09 12:14:00,48.5,34.8,30.45,North,360,0.0,5.0,59,0.00,,---,0.00,VWS V14.00,2013-02-09 18:14:00,
2013-02-09 12:19:00,49.0,33.1,30.45,NNE,22,3.0,5.0,54,0.00,,---,0.00,VWS V14.00,2013-02-09 18:19:00,
2013-02-09 12:24:00,48.9,33.5,30.44,NNE,22,0.0,5.0,55,0.00,,---,0.00,VWS V14.00,2013-02-09 18:24:00,
2013-02-09 12:29:00,49.4,34.4,30.43,NNE,22,0.0,0.0,56,0.00,,---,0.00,VWS V14.00,2013-02-09 18:29:00,
2013-02-09 12:34:00,50.2,34.7,30.43,NE,35,0.0,9.0,55,0.00,,---,0.00,VWS V14.00,2013-02-09 18:34:00,
2013-02-09 12:39:00,50.1,32.7,30.43,East,94,2.0,9.0,51,0.00,,---,0.00,VWS V14.00,2013-02-09 18:39:00,
2013-02-09 12:44:00,50.1,33.2,30.43,NE,40,4.0,9.0,52,0.00,,---,0.00,VWS V14.00,2013-02-09 18:44:00,
2013-02-09 12:49:00,50.4,33.9,30.43,ENE,64,0.0,9.0,53,0.00,,---,0.00,VWS V14.00,2013-02-09 18:49:00,
2013-02-09 12:54:00,50.5,33.1,30.43,ENE,64,0.0,9.0,51,0.00,,---,0.00,VWS V14.00,2013-02-09 18:54:00,
2013-02-09 12:59:00,51.2,34.2,30.43,East,83,0.0,1.0,52,0.00,,---,0.00,VWS V14.00,2013-02-09 18:59:00,
2013-02-09 13:04:00,51.4,34.4,30.42,NE,50,5.0,6.0,52,0.00,,---,0.00,VWS V14.00,2013-02-09 19:04:00,
2013-02-09 13:09:00,51.7,34.2,30.42,NNE,30,0.0,6.0,51,0.00,,---,0.00,VWS V14.00,2013-02-09 19:09:00,
2013-02-09 13:14:00,52.2,34.6,30.42,ENE,58,0.0,6.0,51,0.00,,---,0.00,VWS V14.00,2013-02-09 19:14:00,
2013-02-09 13:19:00,52.6,34.5,30.41,NE,35,1.0,8.0,50,0.00,,---,0.00,VWS V14.00,2013-02-09 19:19:00,
2013-02-09 13:24:00,52.5,33.4,30.41,NNE,33,0.0,8.0,48,0.00,,---,0.00,VWS V14.00,2013-02-09 19:24:00,
2013-02-09 13:29:00,52.8,34.7,30.41,NNE,33,0.0,1.0,50,0.00,,---,0.00,VWS V14.00,2013-02-09 19:29:00,
2013-02-09 13:34:00,53.3,34.1,30.41,East,100,0.0,4.0,48,0.00,,---,0.00,VWS V14.00,2013-02-09 19:34:00,
2013-02-09 13:39:00,53.2,33.0,30.41,NE,53,0.0,4.0,46,0.00,,---,0.00,VWS V14.00,2013-02-09 19:39:00,
2013-02-09 13:44:00,53.3,34.1,30.41,NNE,16,4.0,6.0,48,0.00,,---,0.00,VWS V14.00,2013-02-09 19:44:00,
2013-02-09 13:49:00,53.6,33.9,30.40,NNE,16,0.0,6.0,47,0.00,,---,0.00,VWS V14.00,2013-02-09 19:49:00,
2013-02-09 13:54:00,53.8,34.1,30.40,NNE,16,0.0,6.0,47,0.00,,---,0.00,VWS V14.00,2013-02-09 19:54:00,
2013-02-09 13:59:00,54.2,36.0,30.40,ENE,72,0.0,1.0,50,0.00,,---,0.00,VWS V14.00,2013-02-09 19:59:00,
2013-02-09 14:04:00,54.5,33.6,30.39,NNE,23,3.0,6.0,45,0.00,,---,0.00,VWS V14.00,2013-02-09 20:04:00,
2013-02-09 14:09:00,54.3,34.5,30.39,NNE,23,0.0,6.0,47,0.00,,---,0.00,VWS V14.00,2013-02-09 20:09:00,
2013-02-09 14:14:00,54.6,34.2,30.38,NNW,344,2.0,7.0,46,0.00,,---,0.00,VWS V14.00,2013-02-09 20:14:00,
2013-02-09 14:19:00,54.6,33.7,30.37,NE,41,0.0,7.0,45,0.00,,---,0.00,VWS V14.00,2013-02-09 20:19:00,
2013-02-09 14:24:00,54.7,33.8,30.37,NE,39,0.0,7.0,45,0.00,,---,0.00,VWS V14.00,2013-02-09 20:24:00,
2013-02-09 14:29:00,55.0,34.6,30.37,ENE,78,2.0,3.0,46,0.00,,---,0.00,VWS V14.00,2013-02-09 20:29:00,
2013-02-09 14:34:00,54.9,34.0,30.37,East,80,5.0,6.0,45,0.00,,---,0.00,VWS V14.00,2013-02-09 20:34:00,
2013-02-09 14:39:00,54.8,33.9,30.37,NE,35,4.0,6.0,45,0.00,,---,0.00,VWS V14.00,2013-02-09 20:39:00,
2013-02-09 14:44:00,55.1,33.6,30.37,NNE,19,0.0,6.0,44,0.00,,---,0.00,VWS V14.00,2013-02-09 20:44:00,
2013-02-09 14:49:00,55.3,35.4,30.36,NE,43,5.0,6.0,47,0.00,,---,0.00,VWS V14.00,2013-02-09 20:49:00,
2013-02-09 14:54:00,55.4,35.0,30.36,NE,34,3.0,6.0,46,0.00,,---,0.00,VWS V14.00,2013-02-09 20:54:00,
2013-02-09 14:59:00,55.5,35.6,30.36,NE,42,5.0,6.0,47,0.00,,---,0.00,VWS V14.00,2013-02-09 20:59:00,
2013-02-09 15:04:00,55.4,34.4,30.36,NNE,29,0.0,6.0,45,0.00,,---,0.00,VWS V14.00,2013-02-09 21:04:00,
2013-02-09 15:09:00,55.7,34.1,30.37,NNE,29,0.0,6.0,44,0.00,,---,0.00,VWS V14.00,2013-02-09 21:09:00,
2013-02-09 15:14:00,56.0,35.0,30.36,NE,40,5.0,6.0,45,0.00,,---,0.00,VWS V14.00,2013-02-09 21:14:00,
2013-02-09 15:19:00,56.0,35.0,30.36,NE,46,0.0,6.0,45,0.00,,---,0.00,VWS V14.00,2013-02-09 21:19:00,
2013-02-09 15:24:00,56.2,34.6,30.36,NE,46,0.0,6.0,44,0.00,,---,0.00,VWS V14.00,2013-02-09 21:24:00,
2013-02-09 15:29:00,56.6,36.1,30.36,NE,46,0.0,0.0,46,0.00,,---,0.00,VWS V14.00,2013-02-09 21:29:00,
2013-02-09 15:34:00,56.8,34.6,30.36,NE,46,2.0,3.0,43,0.00,,---,0.00,VWS V14.00,2013-02-09 21:34:00,
2013-02-09 15:39:00,56.9,34.7,30.36,NE,46,0.0,3.0,43,0.00,,---,0.00,VWS V14.00,2013-02-09 21:39:00,
2013-02-09 15:44:00,57.1,34.8,30.36,NE,46,3.0,4.0,43,0.00,,---,0.00,VWS V14.00,2013-02-09 21:44:00,
2013-02-09 15:49:00,57.1,35.4,30.36,NNE,20,0.0,5.0,44,0.00,,---,0.00,VWS V14.00,2013-02-09 21:49:00,
2013-02-09 15:54:00,57.1,34.2,30.35,NW,321,4.0,5.0,42,0.00,,---,0.00,VWS V14.00,2013-02-09 21:54:00,
2013-02-09 15:59:00,56.6,34.4,30.35,NE,42,4.0,5.0,43,0.00,,---,0.00,VWS V14.00,2013-02-09 21:59:00,
2013-02-09 16:04:00,56.0,35.0,30.35,NNE,13,1.0,5.0,45,0.00,,---,0.00,VWS V14.00,2013-02-09 22:04:00,
2013-02-09 16:09:00,55.9,34.9,30.35,East,85,2.0,5.0,45,0.00,,---,0.00,VWS V14.00,2013-02-09 22:09:00,
2013-02-09 16:14:00,55.9,33.8,30.35,ENE,73,3.0,5.0,43,0.00,,---,0.00,VWS V14.00,2013-02-09 22:14:00,
2013-02-09 16:19:00,56.0,34.4,30.35,NE,43,3.0,5.0,44,0.00,,---,0.00,VWS V14.00,2013-02-09 22:19:00,
2013-02-09 16:24:00,55.9,34.3,30.35,NE,44,2.0,5.0,44,0.00,,---,0.00,VWS V14.00,2013-02-09 22:24:00,
2013-02-09 16:29:00,55.9,34.3,30.35,NE,38,0.0,1.0,44,0.00,,---,0.00,VWS V14.00,2013-02-09 22:29:00,
2013-02-09 16:34:00,55.9,34.9,30.35,WSW,257,0.0,4.0,45,0.00,,---,0.00,VWS V14.00,2013-02-09 22:34:00,
2013-02-09 16:39:00,55.8,34.8,30.35,ENE,76,0.0,4.0,45,0.00,,---,0.00,VWS V14.00,2013-02-09 22:39:00,
2013-02-09 16:44:00,55.6,35.2,30.35,ENE,65,0.0,4.0,46,0.00,,---,0.00,VWS V14.00,2013-02-09 22:44:00,
2013-02-09 16:49:00,55.4,35.5,30.34,East,86,3.0,4.0,47,0.00,,---,0.00,VWS V14.00,2013-02-09 22:49:00,
2013-02-09 16:54:00,55.1,35.2,30.34,East,86,0.0,4.0,47,0.00,,---,0.00,VWS V14.00,2013-02-09 22:54:00,
2013-02-09 16:59:00,54.6,35.8,30.34,East,86,0.0,0.0,49,0.00,,---,0.00,VWS V14.00,2013-02-09 22:59:00,
2013-02-09 17:04:00,54.1,34.3,30.34,East,86,0.0,1.0,47,0.00,,---,0.00,VWS V14.00,2013-02-09 23:04:00,
2013-02-09 17:09:00,53.7,34.5,30.34,East,86,0.0,2.0,48,0.00,,---,0.00,VWS V14.00,2013-02-09 23:09:00,
2013-02-09 17:14:00,53.2,34.5,30.34,East,86,0.0,2.0,49,0.00,,---,0.00,VWS V14.00,2013-02-09 23:14:00,
2013-02-09 17:19:00,53.0,34.4,30.34,East,86,0.0,2.0,49,0.00,,---,0.00,VWS V14.00,2013-02-09 23:19:00,
2013-02-09 17:24:00,52.7,34.1,30.34,East,86,0.0,2.0,49,0.00,,---,0.00,VWS V14.00,2013-02-09 23:24:00,
2013-02-09 17:28:00,52.2,35.1,30.34,East,86,0.0,0.0,52,0.00,,---,0.00,VWS V14.00,2013-02-09 23:28:00,
2013-02-09 17:33:00,51.7,34.7,30.34,East,86,0.0,0.0,52,0.00,,---,0.00,VWS V14.00,2013-02-09 23:33:00,
2013-02-09 17:38:00,50.9,34.9,30.34,East,86,0.0,0.0,54,0.00,,---,0.00,VWS V14.00,2013-02-09 23:38:00,
2013-02-09 17:43:00,50.3,34.8,30.34,East,86,0.0,0.0,55,0.00,,---,0.00,VWS V14.00,2013-02-09 23:43:00,
2013-02-09 17:48:00,49.2,35.1,30.34,East,86,0.0,0.0,58,0.00,,---,0.00,VWS V14.00,2013-02-09 23:48:00,
2013-02-09 17:53:00,48.5,34.8,30.34,East,86,0.0,0.0,59,0.00,,---,0.00,VWS V14.00,2013-02-09 23:53:00,
2013-02-09 17:58:00,47.8,35.4,30.35,East,86,0.0,0.0,62,0.00,,---,0.00,VWS V14.00,2013-02-09 23:58:00,
2013-02-09 18:03:00,47.1,35.2,30.34,East,86,0.0,0.0,63,0.00,,---,0.00,VWS V14.00,2013-02-10 00:03:00,
2013-02-09 18:08:00,46.5,35.0,30.34,East,86,0.0,0.0,64,0.00,,---,0.00,VWS V14.00,2013-02-10 00:08:00,
2013-02-09 18:13:00,45.9,34.8,30.33,East,86,0.0,0.0,65,0.00,,---,0.00,VWS V14.00,2013-02-10 00:13:00,
2013-02-09 18:18:00,45.5,34.8,30.33,East,86,0.0,0.0,66,0.00,,---,0.00,VWS V14.00,2013-02-10 00:18:00,
2013-02-09 18:23:00,45.1,34.4,30.34,East,86,0.0,0.0,66,0.00,,---,0.00,VWS V14.00,2013-02-10 00:23:00,
2013-02-09 18:28:00,44.6,34.7,30.33,East,86,0.0,0.0,68,0.00,,---,0.00,VWS V14.00,2013-02-10 00:28:00,
2013-02-09 18:33:00,44.2,34.7,30.33,East,86,0.0,0.0,69,0.00,,---,0.00,VWS V14.00,2013-02-10 00:33:00,
2013-02-09 18:38:00,43.9,34.8,30.33,East,86,0.0,0.0,70,0.00,,---,0.00,VWS V14.00,2013-02-10 00:38:00,
2013-02-09 18:43:00,43.5,34.4,30.33,East,86,0.0,0.0,70,0.00,,---,0.00,VWS V14.00,2013-02-10 00:43:00,
2013-02-09 18:49:00,43.0,34.2,30.33,East,86,0.0,0.0,71,0.00,,---,0.00,VWS V14.00,2013-02-10 00:49:00,
2013-02-09 18:54:00,42.4,34.4,30.33,East,86,0.0,0.0,73,0.00,,---,0.00,VWS V14.00,2013-02-10 00:54:00,
2013-02-09 18:58:00,42.0,34.0,30.33,East,86,0.0,0.0,73,0.00,,---,0.00,VWS V14.00,2013-02-10 00:58:00,
2013-02-09 19:04:00,41.7,34.0,30.33,East,86,0.0,0.0,74,0.00,,---,0.00,VWS V14.00,2013-02-10 01:04:00,
2013-02-09 19:09:00,41.5,34.2,30.33,East,86,0.0,0.0,75,0.00,,---,0.00,VWS V14.00,2013-02-10 01:09:00,
2013-02-09 19:14:00,41.2,33.9,30.33,East,86,0.0,0.0,75,0.00,,---,0.00,VWS V14.00,2013-02-10 01:14:00,
2013-02-09 19:19:00,40.9,34.3,30.33,East,86,0.0,0.0,77,0.00,,---,0.00,VWS V14.00,2013-02-10 01:19:00,
2013-02-09 19:24:00,40.8,34.2,30.32,East,86,0.0,0.0,77,0.00,,---,0.00,VWS V14.00,2013-02-10 01:24:00,
2013-02-09 19:29:00,40.4,34.1,30.32,East,86,0.0,0.0,78,0.00,,---,0.00,VWS V14.00,2013-02-10 01:29:00,
2013-02-09 19:33:00,40.4,34.4,30.32,East,86,0.0,0.0,79,0.00,,---,0.00,VWS V14.00,2013-02-10 01:33:00,
2013-02-09 19:38:00,40.7,34.7,30.33,East,86,0.0,0.0,79,0.00,,---,0.00,VWS V14.00,2013-02-10 01:38:00,
2013-02-09 19:43:00,40.4,34.7,30.33,East,86,0.0,0.0,80,0.00,,---,0.00,VWS V14.00,2013-02-10 01:43:00,
2013-02-09 19:48:00,40.2,34.5,30.32,East,86,0.0,0.0,80,0.00,,---,0.00,VWS V14.00,2013-02-10 01:48:00,
2013-02-09 19:53:00,40.2,34.8,30.32,East,86,0.0,1.0,81,0.00,,---,0.00,VWS V14.00,2013-02-10 01:53:00,
2013-02-09 19:58:00,41.0,33.0,30.32,East,86,0.0,0.0,73,0.00,,---,0.00,VWS V14.00,2013-02-10 01:58:00,
2013-02-09 20:03:00,43.4,31.7,30.32,SE,130,0.0,5.0,63,0.00,,---,0.00,VWS V14.00,2013-02-10 02:03:00,
2013-02-09 20:08:00,44.7,31.7,30.32,SE,130,0.0,5.0,60,0.00,,---,0.00,VWS V14.00,2013-02-10 02:08:00,
2013-02-09 20:13:00,45.2,31.3,30.33,SE,130,0.0,5.0,58,0.00,,---,0.00,VWS V14.00,2013-02-10 02:13:00,
2013-02-09 20:18:00,45.1,32.9,30.33,SE,130,0.0,5.0,62,0.00,,---,0.00,VWS V14.00,2013-02-10 02:18:00,
2013-02-09 20:23:00,44.9,31.9,30.32,SE,130,0.0,5.0,60,0.00,,---,0.00,VWS V14.00,2013-02-10 02:23:00,
2013-02-09 20:28:00,44.4,33.4,30.33,SE,130,0.0,0.0,65,0.00,,---,0.00,VWS V14.00,2013-02-10 02:28:00,
2013-02-09 20:33:00,43.6,33.4,30.33,SE,130,0.0,0.0,67,0.00,,---,0.00,VWS V14.00,2013-02-10 02:33:00,
2013-02-09 20:38:00,43.3,33.5,30.33,SE,130,0.0,0.0,68,0.00,,---,0.00,VWS V14.00,2013-02-10 02:38:00,
2013-02-09 20:43:00,43.0,33.9,30.33,SE,130,0.0,0.0,70,0.00,,---,0.00,VWS V14.00,2013-02-10 02:43:00,
2013-02-09 20:48:00,42.4,33.7,30.33,SE,130,0.0,0.0,71,0.00,,---,0.00,VWS V14.00,2013-02-10 02:48:00,
2013-02-09 20:53:00,42.1,33.7,30.33,SE,130,0.0,0.0,72,0.00,,---,0.00,VWS V14.00,2013-02-10 02:53:00,
2013-02-09 20:58:00,41.8,34.1,30.33,SE,130,0.0,0.0,74,0.00,,---,0.00,VWS V14.00,2013-02-10 02:58:00,
2013-02-09 21:03:00,41.7,34.0,30.33,SE,130,0.0,0.0,74,0.00,,---,0.00,VWS V14.00,2013-02-10 03:03:00,
2013-02-09 21:08:00,41.6,33.9,30.33,SE,130,0.0,0.0,74,0.00,,---,0.00,VWS V14.00,2013-02-10 03:08:00,
2013-02-09 21:13:00,41.6,34.9,30.33,SE,130,0.0,0.0,77,0.00,,---,0.00,VWS V14.00,2013-02-10 03:13:00,
2013-02-09 21:18:00,41.6,34.9,30.33,SE,130,0.0,0.0,77,0.00,,---,0.00,VWS V14.00,2013-02-10 03:18:00,
2013-02-09 21:23:00,41.7,35.4,30.33,SE,130,0.0,0.0,78,0.00,,---,0.00,VWS V14.00,2013-02-10 03:23:00,
2013-02-09 21:29:00,42.1,36.1,30.32,SE,130,0.0,0.0,79,0.00,,---,0.00,VWS V14.00,2013-02-10 03:29:00,
2013-02-09 21:34:00,42.2,34.9,30.32,SE,130,0.0,0.0,75,0.00,,---,0.00,VWS V14.00,2013-02-10 03:34:00,
2013-02-09 21:39:00,42.4,35.7,30.32,SE,130,0.0,0.0,77,0.00,,---,0.00,VWS V14.00,2013-02-10 03:39:00,
2013-02-09 21:44:00,42.6,32.4,30.31,SE,130,0.0,1.0,67,0.00,,---,0.00,VWS V14.00,2013-02-10 03:44:00,
2013-02-09 21:49:00,43.6,32.6,30.31,SE,130,0.0,1.0,65,0.00,,---,0.00,VWS V14.00,2013-02-10 03:49:00,
2013-02-09 21:54:00,44.2,33.6,30.31,SE,130,0.0,1.0,66,0.00,,---,0.00,VWS V14.00,2013-02-10 03:54:00,
2013-02-09 21:59:00,44.5,34.6,30.31,SE,130,0.0,0.0,68,0.00,,---,0.00,VWS V14.00,2013-02-10 03:59:00,
2013-02-09 22:04:00,44.1,35.7,30.31,SE,130,0.0,0.0,72,0.00,,---,0.00,VWS V14.00,2013-02-10 04:04:00,
2013-02-09 22:09:00,43.5,35.1,30.31,SE,130,0.0,0.0,72,0.00,,---,0.00,VWS V14.00,2013-02-10 04:09:00,
2013-02-09 22:13:00,42.8,35.8,30.30,SE,130,0.0,0.0,76,0.00,,---,0.00,VWS V14.00,2013-02-10 04:13:00,
2013-02-09 22:19:00,42.5,35.2,30.30,SE,130,0.0,0.0,75,0.00,,---,0.00,VWS V14.00,2013-02-10 04:19:00,
2013-02-09 22:23:00,42.3,35.6,30.30,SE,130,0.0,0.0,77,0.00,,---,0.00,VWS V14.00,2013-02-10 04:23:00,
2013-02-09 22:28:00,42.2,35.8,30.30,SE,130,0.0,0.0,78,0.00,,---,0.00,VWS V14.00,2013-02-10 04:28:00,
2013-02-09 22:33:00,42.1,35.8,30.30,SE,130,0.0,0.0,78,0.00,,---,0.00,VWS V14.00,2013-02-10 04:33:00,
2013-02-09 22:38:00,42.1,35.8,30.30,SE,130,0.0,0.0,78,0.00,,---,0.00,VWS V14.00,2013-02-10 04:38:00,
2013-02-09 22:43:00,42.1,35.4,30.30,SE,130,0.0,0.0,77,0.00,,---,0.00,VWS V14.00,2013-02-10 04:43:00,
2013-02-09 22:48:00,42.2,35.8,30.31,SE,130,0.0,0.0,78,0.00,,---,0.00,VWS V14.00,2013-02-10 04:48:00,
2013-02-09 22:53:00,42.6,35.9,30.31,WSW,256,0.0,5.0,77,0.00,,---,0.00,VWS V14.00,2013-02-10 04:53:00,
2013-02-09 22:58:00,42.7,35.0,30.31,WSW,256,0.0,0.0,74,0.00,,---,0.00,VWS V14.00,2013-02-10 04:58:00,
2013-02-09 23:00:00,42.7,35.3,30.31,WSW,256,0.0,0.0,75,0.00,,---,0.00,VWS V14.00,2013-02-10 05:00:00,
2013-02-09 23:05:00,42.9,34.2,30.31,WSW,256,0.0,0.0,71,0.00,,---,0.00,VWS V14.00,2013-02-10 05:05:00,
2013-02-09 23:10:00,42.9,34.8,30.31,WSW,256,0.0,0.0,73,0.00,,---,0.00,VWS V14.00,2013-02-10 05:10:00,
2013-02-09 23:15:00,43.2,34.5,30.30,WSW,256,0.0,1.0,71,0.00,,---,0.00,VWS V14.00,2013-02-10 05:15:00,
2013-02-09 23:20:00,44.2,34.3,30.30,WSW,256,0.0,1.0,68,0.00,,---,0.00,VWS V14.00,2013-02-10 05:20:00,
2013-02-09 23:25:00,45.1,34.0,30.30,SSE,166,0.0,1.0,65,0.00,,---,0.00,VWS V14.00,2013-02-10 05:25:00,
2013-02-09 23:30:00,45.9,34.8,30.30,South,173,4.0,4.0,65,0.00,,---,0.00,VWS V14.00,2013-02-10 05:30:00,
2013-02-09 23:35:00,46.8,34.1,30.30,South,173,0.0,4.0,61,0.00,,---,0.00,VWS V14.00,2013-02-10 05:35:00,
2013-02-09 23:40:00,47.0,34.7,30.30,South,173,0.0,4.0,62,0.00,,---,0.00,VWS V14.00,2013-02-10 05:40:00,
2013-02-09 23:45:00,46.9,34.6,30.30,South,173,0.0,4.0,62,0.00,,---,0.00,VWS V14.00,2013-02-10 05:45:00,
2013-02-09 23:50:00,46.8,34.5,30.30,South,173,0.0,4.0,62,0.00,,---,0.00,VWS V14.00,2013-02-10 05:50:00,
2013-02-09 23:55:00,46.6,34.3,30.30,South,173,0.0,4.0,62,0.00,,---,0.00,VWS V14.00,2013-02-10 05:55:00,